Palmdale, CA

5:28 PM PDT on June 24, 2017 (GMT -0700)
Palmdale Af Plant 42

Weather History for KPMD - April, 2011

Change the Weather History Date:

Friday, April 15, 2011

  Actual Average Record
Temperature  
Mean Temperature 59 °F 58 °F  
Max Temperature 79 °F 72 °F 92 °F (1987)
Min Temperature 39 °F 43 °F 28 °F (1971)
Degree Days  
Heating Degree Days 6 8  
Month to date heating degree days 148 140  
Since 1 July heating degree days 2815 2761  
Cooling Degree Days 0 0  
Month to date cooling degree days 1 0  
Year to date cooling degree days 2 2  
Growing Degree Days 8 (Base 50)    
Moisture  
Dew Point 31 °F    
Average Humidity 41    
Maximum Humidity 64    
Minimum Humidity 17    
Precipitation  
Precipitation 0.00 in 0.02 in 0.19 in (1943)
Month to date precipitation T 0.25  
Year to date precipitation 2.33 4.76  
Since 1 July precipitation 7.71  
Snow  
Snow 0.00 in - 0.00 in (1973)
Month to date snowfall 0.0  
Since 1 July snowfall 0.0  
Snow Depth 0.00 in    
Sea Level Pressure  
Sea Level Pressure 30.13 in    
Wind  
Wind Speed 8 mph (West)    
Max Wind Speed 24 mph    
Max Gust Speed 29 mph    
Visibility 10 miles    
Events      
T = Trace of Precipitation, MM = Missing Value Source: NWS Daily Summary

Daily Weather History Graph

Daily Weather History Graph

Search for Another Location

Airport or City:

Trip Planner

Search our weather history database for the weather conditions in past years. The results will help you decide how hot, cold, wet, or windy it might be!

Date:

Astronomy

Apr. 15, 2011 Rise Set
Actual Time 6:20 AM PDT 7:24 PM PDT
Civil Twilight 5:55 AM PDT 7:50 PM PDT
Nautical Twilight 5:24 AM PDT 8:21 PM PDT
Astronomical Twilight 4:52 AM PDT 8:53 PM PDT
Moon 5:02 PM PDT (4/15) 4:25 AM PDT (4/15)
Length of Visible Light 13h 55m
Length of Day
13h 03m
Waxing Gibbous, 92% of the Moon is Illuminated
Apr 15
Waxing Gibbous
Apr 17
Full
Apr 24
Last Quarter
May 2
New
May 10
First Quarter

Hourly Weather History & Observations

Time (PDT) Temp. Windchill Dew Point Humidity Pressure Visibility Wind Dir Wind Speed Gust Speed Precip Events Conditions
12:53 AM 48.9 °F - 24.1 °F 38% 30.21 in 10.0 mi West 3.5 mph - N/A   Clear
1:53 AM 45.0 °F 41.8 °F 27.0 °F 49% 30.20 in 10.0 mi South 5.8 mph - N/A   Clear
2:53 AM 42.8 °F 38.6 °F 28.4 °F 57% 30.21 in 10.0 mi SSW 6.9 mph - N/A   Clear
3:53 AM 41.0 °F 38.0 °F 27.0 °F 57% 30.18 in 10.0 mi SSW 4.6 mph - N/A   Clear
4:53 AM 42.1 °F 38.4 °F 27.0 °F 55% 30.18 in 10.0 mi SSW 5.8 mph - N/A   Clear
5:53 AM 39.9 °F 35.8 °F 28.0 °F 63% 30.19 in 10.0 mi SSE 5.8 mph - N/A   Clear
6:53 AM 42.1 °F - 28.9 °F 60% 30.20 in 10.0 mi Calm Calm - N/A   Clear
7:53 AM 51.1 °F - 28.9 °F 43% 30.21 in 10.0 mi South 3.5 mph - N/A   Clear
8:53 AM 55.9 °F - 28.0 °F 34% 30.21 in 10.0 mi West 3.5 mph - N/A   Clear
9:53 AM 62.1 °F - 32.0 °F 32% 30.20 in 10.0 mi NNW 5.8 mph - N/A   Clear
10:53 AM 64.9 °F - 33.1 °F 31% 30.19 in 10.0 mi NW 3.5 mph - N/A   Clear
11:53 AM 68.0 °F - 30.0 °F 24% 30.16 in 10.0 mi East 3.5 mph - N/A   Clear
12:53 PM 72.0 °F - 28.0 °F 20% 30.13 in 10.0 mi Variable 4.6 mph - N/A   Clear
1:53 PM 73.4 °F - 26.6 °F 18% 30.14 in 10.0 mi ENE 4.6 mph - N/A   Clear
2:53 PM 75.9 °F - 28.9 °F 18% 30.08 in 10.0 mi Variable 5.8 mph - N/A   Clear
3:53 PM 78.1 °F - 30.0 °F 17% 30.06 in 10.0 mi NW 12.7 mph 17.3 mph N/A   Clear
4:53 PM 75.9 °F - 35.1 °F 23% 30.04 in 10.0 mi West 10.4 mph - N/A   Clear
5:53 PM 73.9 °F - 36.0 °F 25% 30.04 in 10.0 mi WNW 17.3 mph - N/A   Clear
6:53 PM 66.9 °F - 34.0 °F 30% 30.04 in 10.0 mi WNW 21.9 mph - N/A   Clear
7:53 PM 62.1 °F - 33.1 °F 34% 30.04 in 10.0 mi WNW 21.9 mph 27.6 mph N/A   Clear
8:53 PM 61.0 °F - 33.1 °F 35% 30.05 in 10.0 mi WNW 18.4 mph - N/A   Clear
9:53 PM 61.0 °F - 34.0 °F 36% 30.05 in 10.0 mi WNW 16.1 mph - N/A   Clear
10:53 PM 59.0 °F - 35.1 °F 41% 30.06 in 10.0 mi West 8.1 mph - N/A   Clear
11:53 PM 55.9 °F - 36.0 °F 47% 30.05 in 10.0 mi SE 5.8 mph - N/A   Clear